AFL2845 EFHK-ULLI

Flight info

Callsign AFL2845
Flight time 0h 37m
Altitude 27000
Route ARVEP T82 RATMU DCT OLEMA/K0782F270 L24 AKARU AKARU1V
Aircraft A20N/M-SDE2E3FGHIRWXY/LB1

Departure

Time 2026-04-26 14:44
Airport Helsinki Vantaa Airport (EFHK)

Arrival

Time 2026-04-26 15:21
Airport Pulkovo Airport (ULLI)
Time Latitude Longitude Altitude Speed Heading
2026-04-26 14:18 60.31558 24.97324 192 ft 0 kts 243°
2026-04-26 14:33 60.31559 24.97328 192 ft 1 kts 243°
2026-04-26 14:33 60.31565 24.97355 192 ft 2 kts 243°
2026-04-26 14:34 60.31572 24.97381 193 ft 2 kts 243°
2026-04-26 14:34 60.31578 24.97404 193 ft 2 kts 243°
2026-04-26 14:34 60.31583 24.97426 193 ft 0 kts 243°
2026-04-26 14:34 60.31586 24.97435 192 ft 0 kts 208°
2026-04-26 14:35 60.31591 24.97438 192 ft 0 kts 158°
2026-04-26 14:35 60.31596 24.97431 192 ft 1 kts 152°
2026-04-26 14:35 60.31597 24.97430 192 ft 0 kts 152°
2026-04-26 14:37 60.31592 24.97436 192 ft 3 kts 152°
2026-04-26 14:37 60.31563 24.97467 192 ft 9 kts 148°
2026-04-26 14:38 60.31349 24.97847 185 ft 14 kts 154°
2026-04-26 14:39 60.31243 24.97945 184 ft 16 kts 154°
2026-04-26 14:39 60.31138 24.98052 183 ft 17 kts 153°
2026-04-26 14:39 60.31024 24.98171 181 ft 18 kts 161°
2026-04-26 14:39 60.30903 24.98270 181 ft 18 kts 158°
2026-04-26 14:40 60.30786 24.98378 180 ft 18 kts 158°
2026-04-26 14:40 60.30676 24.98518 177 ft 20 kts 117°
2026-04-26 14:40 60.30726 24.98750 174 ft 20 kts 19°
2026-04-26 14:40 60.30809 24.98724 174 ft 0 kts 334°
2026-04-26 14:42 60.30810 24.98723 174 ft 0 kts 334°
2026-04-26 14:43 60.31116 24.98429 180 ft 88 kts 333°
2026-04-26 14:44 60.31861 24.97658 239 ft 145 kts 333°
2026-04-26 14:44 60.32782 24.96669 472 ft 154 kts 333°
2026-04-26 14:44 60.33744 24.95682 727 ft 155 kts 339°
2026-04-26 14:44 60.34792 24.95741 965 ft 161 kts 19°
2026-04-26 14:45 60.35698 24.97162 1248 ft 167 kts 36°
2026-04-26 14:45 60.36259 24.98230 1422 ft 166 kts 35°
2026-04-26 14:45 60.37373 25.00323 1766 ft 165 kts 34°
2026-04-26 14:45 60.38286 25.01978 2060 ft 191 kts 34°
2026-04-26 14:46 60.39157 25.04126 2807 ft 214 kts 62°
2026-04-26 14:46 60.39250 25.07183 3808 ft 228 kts 88°
2026-04-26 14:46 60.39005 25.10364 4676 ft 235 kts 91°
2026-04-26 14:46 60.38732 25.13583 5553 ft 238 kts 91°
2026-04-26 14:47 60.38476 25.16869 6460 ft 239 kts 90°
2026-04-26 14:47 60.38244 25.20189 7367 ft 241 kts 89°
2026-04-26 14:47 60.38029 25.23529 8263 ft 242 kts 89°
2026-04-26 14:47 60.37824 25.26893 9142 ft 244 kts 89°
2026-04-26 14:48 60.37626 25.30259 10007 ft 246 kts 90°
2026-04-26 14:48 60.37425 25.33688 10835 ft 248 kts 90°
2026-04-26 14:48 60.37226 25.37094 11618 ft 251 kts 90°
2026-04-26 14:48 60.37023 25.40599 12390 ft 254 kts 91°
2026-04-26 14:49 60.36817 25.44131 13159 ft 257 kts 92°
2026-04-26 14:49 60.36606 25.47730 13909 ft 260 kts 92°
2026-04-26 14:49 60.36393 25.51340 14654 ft 263 kts 93°
2026-04-26 14:49 60.36173 25.55027 15371 ft 267 kts 94°
2026-04-26 14:50 60.35952 25.58731 16075 ft 270 kts 94°
2026-04-26 14:50 60.35726 25.62480 16770 ft 274 kts 94°
2026-04-26 14:50 60.35496 25.66309 17454 ft 277 kts 95°
2026-04-26 14:50 60.35264 25.70156 18125 ft 280 kts 96°
2026-04-26 14:51 60.35025 25.74084 18790 ft 284 kts 96°
2026-04-26 14:51 60.34784 25.78037 19440 ft 287 kts 96°
2026-04-26 14:51 60.34537 25.82039 20085 ft 290 kts 96°
2026-04-26 14:51 60.34290 25.86029 20731 ft 292 kts 97°
2026-04-26 14:52 60.34038 25.90091 21369 ft 294 kts 97°
2026-04-26 14:52 60.33783 25.94177 21971 ft 297 kts 97°
2026-04-26 14:52 60.33526 25.98271 22548 ft 300 kts 97°
2026-04-26 14:52 60.33263 26.02457 23113 ft 304 kts 97°
2026-04-26 14:53 60.32997 26.06681 23681 ft 306 kts 97°
2026-04-26 14:53 60.32725 26.10960 24227 ft 310 kts 97°
2026-04-26 14:53 60.32450 26.15252 24742 ft 313 kts 97°
2026-04-26 14:53 60.32176 26.19510 25185 ft 317 kts 97°
2026-04-26 14:54 60.31886 26.23966 25597 ft 320 kts 96°
2026-04-26 14:54 60.31595 26.28419 25981 ft 324 kts 96°
2026-04-26 14:54 60.31300 26.32931 26355 ft 327 kts 96°
2026-04-26 14:54 60.31003 26.37458 26630 ft 335 kts 95°
2026-04-26 14:55 60.30799 26.40557 26698 ft 344 kts 95°
2026-04-26 14:55 60.30368 26.47138 26709 ft 367 kts 96°
2026-04-26 14:55 60.30022 26.52344 26719 ft 383 kts 96°
2026-04-26 14:55 60.29660 26.57756 26715 ft 399 kts 96°
2026-04-26 14:56 60.29284 26.63352 26712 ft 414 kts 96°
2026-04-26 14:56 60.28888 26.69192 26709 ft 428 kts 97°
2026-04-26 14:56 60.28064 26.81202 26706 ft 441 kts 97°
2026-04-26 14:56 60.27644 26.87278 26703 ft 447 kts 97°
2026-04-26 14:57 60.27212 26.93455 26689 ft 448 kts 97°
2026-04-26 14:57 60.26775 26.99658 26693 ft 447 kts 97°
2026-04-26 14:57 60.26339 27.05820 26680 ft 446 kts 97°
2026-04-26 14:57 60.26045 27.09944 26679 ft 446 kts 97°
2026-04-26 14:58 60.25460 27.18112 26677 ft 446 kts 96°
2026-04-26 14:58 60.25011 27.24321 26675 ft 446 kts 97°
2026-04-26 14:58 60.24565 27.30436 26673 ft 446 kts 97°
2026-04-26 14:58 60.24110 27.36653 26671 ft 446 kts 96°
2026-04-26 14:59 60.23658 27.42779 26669 ft 445 kts 96°
2026-04-26 14:59 60.23270 27.48955 26666 ft 444 kts 94°
2026-04-26 14:59 60.23022 27.55084 26665 ft 444 kts 92°
2026-04-26 14:59 60.22872 27.59173 26664 ft 443 kts 92°
2026-04-26 15:00 60.22573 27.67380 26660 ft 443 kts 92°
2026-04-26 15:00 60.22346 27.73507 26654 ft 442 kts 92°
2026-04-26 15:00 60.22114 27.79685 26648 ft 442 kts 92°
2026-04-26 15:00 60.21882 27.85729 26640 ft 442 kts 92°
2026-04-26 15:01 60.21643 27.91908 26638 ft 442 kts 92°
2026-04-26 15:01 60.21401 27.98049 26630 ft 442 kts 92°
2026-04-26 15:01 60.21157 28.04117 26622 ft 442 kts 92°
2026-04-26 15:01 60.20908 28.10241 26617 ft 441 kts 92°
2026-04-26 15:02 60.20658 28.16332 26610 ft 441 kts 92°
2026-04-26 15:02 60.20403 28.22483 26609 ft 441 kts 92°
2026-04-26 15:02 60.20146 28.28634 26605 ft 441 kts 92°
2026-04-26 15:02 60.19889 28.34730 26608 ft 441 kts 92°
2026-04-26 15:03 60.19630 28.40774 26491 ft 436 kts 92°
2026-04-26 15:03 60.19369 28.46728 25777 ft 430 kts 92°
2026-04-26 15:03 60.19108 28.52699 25149 ft 436 kts 92°
2026-04-26 15:03 60.18841 28.58715 24715 ft 436 kts 92°
2026-04-26 15:04 60.18482 28.64785 24612 ft 431 kts 95°
2026-04-26 15:04 60.17997 28.70654 24608 ft 424 kts 97°
2026-04-26 15:04 60.17497 28.76390 24599 ft 418 kts 97°
2026-04-26 15:04 60.16998 28.82069 24594 ft 413 kts 97°
2026-04-26 15:05 60.16501 28.87687 24587 ft 408 kts 97°
2026-04-26 15:05 60.16170 28.91421 24587 ft 406 kts 97°
2026-04-26 15:05 60.15511 28.98825 24581 ft 401 kts 97°
2026-04-26 15:05 60.15025 29.04269 24581 ft 399 kts 97°
2026-04-26 15:06 60.14533 29.09728 24578 ft 396 kts 97°
2026-04-26 15:06 60.14050 29.15066 24574 ft 395 kts 97°
2026-04-26 15:06 60.13555 29.20501 24582 ft 399 kts 97°
2026-04-26 15:06 60.13053 29.26028 24574 ft 411 kts 97°
2026-04-26 15:07 60.12023 29.37228 23947 ft 408 kts 96°
2026-04-26 15:07 60.11504 29.42814 22580 ft 408 kts 96°
2026-04-26 15:07 60.10995 29.48301 20899 ft 412 kts 95°
2026-04-26 15:08 60.10481 29.53860 19110 ft 415 kts 95°
2026-04-26 15:08 60.09963 29.59434 17275 ft 416 kts 95°
2026-04-26 15:08 60.09435 29.65058 15676 ft 410 kts 96°
2026-04-26 15:08 60.08916 29.70534 14380 ft 398 kts 95°
2026-04-26 15:09 60.08409 29.75802 13447 ft 378 kts 95°
2026-04-26 15:09 60.07930 29.80765 12833 ft 355 kts 95°
2026-04-26 15:09 60.07478 29.85427 12539 ft 326 kts 94°
2026-04-26 15:09 60.07063 29.89656 12508 ft 299 kts 93°
2026-04-26 15:10 60.06678 29.93670 12512 ft 295 kts 93°
2026-04-26 15:10 60.06424 29.96354 12511 ft 295 kts 93°
2026-04-26 15:10 60.05898 30.01771 12505 ft 298 kts 97°
2026-04-26 15:10 60.05213 30.05664 12506 ft 305 kts 109°
2026-04-26 15:11 60.04115 30.09346 12508 ft 310 kts 118°
2026-04-26 15:11 60.02878 30.12881 12499 ft 310 kts 120°
2026-04-26 15:11 60.01636 30.16349 12496 ft 309 kts 120°
2026-04-26 15:11 60.00396 30.19818 12486 ft 309 kts 119°
2026-04-26 15:12 59.99136 30.23352 12498 ft 308 kts 119°
2026-04-26 15:12 59.97921 30.26771 11999 ft 304 kts 119°
2026-04-26 15:12 59.96709 30.30211 10986 ft 312 kts 120°
2026-04-26 15:12 59.95457 30.33777 9775 ft 321 kts 120°
2026-04-26 15:13 59.94180 30.37387 8470 ft 329 kts 119°
2026-04-26 15:13 59.92860 30.41111 7059 ft 337 kts 119°
2026-04-26 15:13 59.91503 30.44924 5596 ft 345 kts 120°
2026-04-26 15:13 59.90151 30.48719 4491 ft 339 kts 119°
2026-04-26 15:14 59.88808 30.52441 3706 ft 326 kts 118°
2026-04-26 15:14 59.87524 30.55965 3228 ft 306 kts 118°
2026-04-26 15:14 59.86321 30.59309 3078 ft 289 kts 116°
2026-04-26 15:14 59.85176 30.62500 3079 ft 277 kts 116°
2026-04-26 15:15 59.84070 30.65621 3063 ft 277 kts 117°
2026-04-26 15:15 59.82943 30.68725 3067 ft 281 kts 122°
2026-04-26 15:15 59.81350 30.71048 3044 ft 293 kts 158°
2026-04-26 15:15 59.79351 30.71381 2878 ft 283 kts 197°
2026-04-26 15:16 59.77743 30.69692 2666 ft 250 kts 237°
2026-04-26 15:16 59.76929 30.66953 2421 ft 220 kts 260°
2026-04-26 15:16 59.76421 30.64206 2131 ft 201 kts 261°
2026-04-26 15:16 59.75935 30.61742 2125 ft 192 kts 260°
2026-04-26 15:17 59.75393 30.59311 2196 ft 194 kts 257°
2026-04-26 15:17 59.75048 30.57674 2125 ft 185 kts 267°
2026-04-26 15:17 59.75088 30.54531 2103 ft 163 kts 294°
2026-04-26 15:17 59.75377 30.52528 2084 ft 145 kts 302°
2026-04-26 15:18 59.75709 30.50603 2112 ft 146 kts 302°
2026-04-26 15:18 59.76024 30.48680 2097 ft 147 kts 301°
2026-04-26 15:18 59.76321 30.46738 2080 ft 148 kts 299°
2026-04-26 15:18 59.76610 30.44772 1875 ft 148 kts 299°
2026-04-26 15:19 59.76892 30.42823 1682 ft 145 kts 299°
2026-04-26 15:19 59.77160 30.40961 1482 ft 138 kts 297°
2026-04-26 15:19 59.77422 30.39175 1302 ft 138 kts 298°
2026-04-26 15:19 59.77689 30.37361 1112 ft 137 kts 298°
2026-04-26 15:20 59.77961 30.35528 923 ft 138 kts 296°
2026-04-26 15:20 59.78226 30.33724 728 ft 138 kts 295°
2026-04-26 15:20 59.78499 30.31865 538 ft 140 kts 295°
2026-04-26 15:20 59.78772 30.30024 337 ft 138 kts 290°
2026-04-26 15:21 59.79042 30.28206 158 ft 136 kts 290°
2026-04-26 15:21 59.79288 30.26570 86 ft 108 kts 283°
2026-04-26 15:21 59.79442 30.25520 85 ft 52 kts 290°
2026-04-26 15:21 59.79511 30.24975 85 ft 36 kts 284°
2026-04-26 15:22 59.79577 30.24543 81 ft 30 kts 279°
2026-04-26 15:22 59.79640 30.24161 82 ft 28 kts 289°
2026-04-26 15:22 59.79700 30.23797 81 ft 27 kts 289°
2026-04-26 15:22 59.79754 30.23458 80 ft 24 kts 295°
2026-04-26 15:23 59.79846 30.23184 78 ft 22 kts 306°
2026-04-26 15:23 59.79932 30.23016 78 ft 12 kts 351°
2026-04-26 15:23 59.79945 30.23017 77 ft 0 kts 20°
2026-04-26 15:25 59.79974 30.23077 77 ft 7 kts 69°
2026-04-26 15:25 59.79966 30.23208 78 ft 14 kts 103°
2026-04-26 15:26 59.79929 30.23450 79 ft 22 kts 108°
2026-04-26 15:26 59.79881 30.23784 81 ft 27 kts 108°
2026-04-26 15:26 59.79827 30.24147 81 ft 26 kts 104°
2026-04-26 15:26 59.79780 30.24491 81 ft 25 kts 104°
2026-04-26 15:27 59.79732 30.24812 84 ft 22 kts 107°
2026-04-26 15:27 59.79686 30.25090 88 ft 20 kts 105°
2026-04-26 15:27 59.79645 30.25354 88 ft 20 kts 105°
2026-04-26 15:27 59.79607 30.25616 87 ft 20 kts 104°
2026-04-26 15:28 59.79573 30.25866 86 ft 18 kts 107°
2026-04-26 15:28 59.79538 30.26086 85 ft 15 kts 104°
2026-04-26 15:28 59.79512 30.26300 85 ft 15 kts 81°
2026-04-26 15:28 59.79584 30.26395 85 ft 14 kts 14°
2026-04-26 15:29 59.79673 30.26448 85 ft 14 kts 15°
2026-04-26 15:29 59.79761 30.26498 85 ft 14 kts 14°
2026-04-26 15:29 59.79944 30.26602 85 ft 14 kts 15°
2026-04-26 15:30 59.80066 30.26746 84 ft 11 kts 92°
2026-04-26 15:30 59.80062 30.26789 84 ft 0 kts 106°